Location: Aix-en-Ergny
(50.5839°N, 1.9996°E)
Time: 14:48:26
(UTC+00:00)

Meteor 1-4 Rocket - Pass Details

Date: 23 October 2019
Orbit: 450 x 503 km, 81.2° (Epoch: 12 November)

Event Time Altitude Azimuth Distance (km) Brightness Sun altitude
Exits shadow 03:50:31 38° 61° (ENE) 714 3.8 -25.4°
Drops below altitude 10° 03:53:07 10° 24° (NNE) 1,595 5.6 -25.0°
Sets 03:55:15 0° 18° (NNE) 2,472 6.6 -24.7°
